Regional Weather Roundup
Issued by NWS

Home | Current Version | Previous Version | Text Only | Print | Product List | Glossary On
Versions: 1 2 3 4 5 6 7 8 9 10 11 12 13 14 15 16 17 18 19 20 21 22 23 24 25 26 27 28
000
ASUS45 KBOU 201810
RWRCO

WEATHER ROUNDUP FOR COLORADO
NATIONAL WEATHER SERVICE DENVER/BOULDER CO
1100 AM MST MON NOV 20 2017

NOTE: "FAIR" INDICATES FEW OR NO CLOUDS BELOW 12000 FEET WITH NO
SIGNIFICANT WEATHER AND/OR OBSTRUCTIONS TO VISIBILITY.

COZ001>005-013-030-031-201900-
...NORTHWEST COLORADO...

CITY           SKY/WX    TMP DP  RH WIND       PRES   REMARKS
CRAIG          FAIR      36  20  52 VRB3      30.12S
HAYDEN         FAIR      32  17  54 SE8       30.14S WCI  25
MEEKER         FAIR      37  20  50 CALM      30.13S
RABBIT EARS PA FAIR      28   9  43 W9G21     30.15R WCI  20
STEAMBOAT SPGS CLOUDY    29  19  66 CALM      30.13S
WALDEN         FAIR      39   7  26 S8        30.07S
$$

COZ006>008-011-201900-
...WEST CENTRAL VALLEYS...

CITY           SKY/WX    TMP DP  RH WIND       PRES   REMARKS
GRAND JUNCTION FAIR      37  18  46 CALM      30.20S
MONTROSE       FAIR      37  19  48 NW3       30.20F
EAGLE          FAIR      27  17  66 W5        30.20F WCI  22
RIFLE          FAIR      31  19  61 CALM      30.20F
DELTA          FAIR      37  16  42 CALM      30.20F
NUCLA          PTSUNNY   36   9  32 CALM      30.23F
$$

COZ017>023-064>068-201900-
...SOUTHWEST COLORADO...

CITY           SKY/WX    TMP DP  RH WIND       PRES   REMARKS
DURANGO        FAIR      40  16  37 CALM      30.17F
CORTEZ         FAIR      42   8  24 CALM      30.21F
PAGOSA SPRINGS FAIR      42  10  26 SE3       30.19F
TELLURIDE      FAIR      47  -3  12 CALM      30.22F
WOLF CREEK PAS FAIR      32  -4  21 S9        30.31S WCI  24
$$

COZ009-010-012-014-032>034-037-058>063-201900-
...CENTRAL COLORADO...

CITY           SKY/WX    TMP DP  RH WIND       PRES   REMARKS
ASPEN          FAIR      34  19  54 NW5       30.14F WCI  30
BUENA VISTA    FAIR      52   0  12 W20G35    30.03F
COPPER MTN     FAIR      34   0  23 MISG      30.21F
BERTHOUD PASS  FAIR      21  10  63 NW28G43   30.15S WCI   3
COTTONWOOD PAS FAIR      46 -15   7 W44G60    30.06F
GUNNISON       FAIR      23  13  65 CALM      30.24F
KREMMLING      FAIR      34  19  55 CALM      30.17S
LEADVILLE      PTSUNNY   39  -8  13 N8        30.14F
MONARCH PASS   FAIR      28  -2  26 W36G44    30.30R WCI  12
SALIDA         FAIR      55  -2  10 E5        30.10F
SUNLIGHT       FAIR      32   0  25 SW12G22   30.24F WCI  23
WILKERSON PASS FAIR      36  -6  17 W15G28    30.09F
$$

COZ069>075-201900-
...SAN LUIS VALLEY/SANGRE DE CRISTO MOUNTAINS...

CITY           SKY/WX    TMP DP  RH WIND       PRES   REMARKS
ALAMOSA        FAIR      39  12  33 CALM      30.13F
DEL NORTE      FAIR      40   4  22 E3        30.14F
LA VETA PASS   FAIR      34  -4  19 SW20G39     N/A  WCI  22
SAGUACHE       FAIR      36   3  25 SE5       30.15F
$$

COZ035-036-038>040-201900-
...NORTHERN COLORADO FRONT RANGE...

CITY           SKY/WX    TMP DP  RH WIND       PRES   REMARKS
DENVER INTL AP PTSUNNY   64   2   8 SW12      29.81F
DMNS CITY PARK   N/A     63   2   8 SW13G25   29.82F
AURORA         PTSUNNY   62  -3   7 W26G41    29.81F
FRONT RANGE AP PTSUNNY   64   7  10 SW15      29.84F
ERIE MUNI ARPT FAIR      64  -3   6 CALM      29.84F
BOULDER MUN AP FAIR      61  12  15 E9        29.76F
CENTENNIAL     PTSUNNY   59  17  19 E5        29.85F
BROOMFIELD     NOT AVBL
FORT COLLINS   FAIR      64   7  10 SW23G32   29.76F
LONGMONT       FAIR      68   5   8 W8G16     29.79S
$$

COZ041-046-047-076>085-087-088-201900-
...PIKES PEAK/PALMER DIVIDE AND SOUTHERN FOOTHILLS...

CITY           SKY/WX    TMP DP  RH WIND       PRES   REMARKS
COLO. SPRINGS  PTSUNNY   59   0   9 S8        29.89F
A. F. ACADEMY  FAIR      60  -4   7 SW15G24   29.88F
SCHRIEVER AFB  FAIR      58  -4   8 S7        29.90F
CHEYENNE MTN   FAIR      55  -1  10 SE5       29.86F
ELLICOTT         N/A      1  -6  72 SW8       29.88F WCI -13
FALCON         FAIR      57  -2   9 W12       29.92F
FORT CARSON    FAIR      56  -1   9 CALM      29.87F
LIMON          FAIR      56  10  16 W3        29.84F
MONUMENT HILL  FAIR      54   3  13 W7        29.93S
CANON CITY     FAIR      61   3  10 W10G16    29.91F
WALSENBURG     FAIR      57   5  12 W18G25    29.96F
TRINIDAD       FAIR      50  20  30 NW7       29.93F
$$

COZ042>045-048>051-090-091-201900-
...NORTHEAST COLORADO...

CITY           SKY/WX    TMP DP  RH WIND       PRES   REMARKS
GREELEY ARPT   FAIR      45  25  45 SE12      29.79F
AKRON          FAIR      56   9  15 SW14      29.79F
BURLINGTON     FAIR      64   2   8 W14       29.81F
WRAY           NOT AVBL
YUMA           FAIR      59  -8   6 W9        29.78F
STERLING       FAIR      54  21  28 SW7       29.78S
HOLYOKE        FAIR      70   5   8 W21G32    29.75F
FORT MORGAN    FAIR      51  14  23 CALM      29.81S
$$

COZ086-089-092>099-201900-
...SOUTHEAST COLORADO...

CITY           SKY/WX    TMP DP  RH WIND       PRES   REMARKS
PUEBLO         FAIR      59   7  12 W21G30    29.85F
LA JUNTA       FAIR      59  13  16 W12       29.85F
LAMAR          FAIR      54  18  24 NW6       29.83F
SPRINGFIELD      N/A     65   5   9 W15       29.87F
$$




USA.gov is the U.S. government's official web portal to all federal, state and local government web resources and services.